Temperature
19 17 17 17 17 18 18 18 17 18 18 17 16 16 16 16 15 15 15 16 16 16 17 17 17 16 16 16 16 16 16 16 16 15 15 15 15 15 15 14 14 14 14 14
17 17 18 18 18 18 18 18 17 18 18 17 16 16 16 15 15 16 16 16 16 16 17 17 17 16 16 16 16 16 16 16 16 15 15 15 15 15 14 14 14 14 14 14
18 18 19 19 18 18 18 17 18 17 17 17 17 16 16 15 16 16 16 16 16 16 17 17 17 16 16 16 16 16 16 16 15 15 15 15 15 14 14 14 14 14 13 13
18 18 19 19 19 18 17 18 18 18 17 16 17 15 15 15 15 15 15 16 16 17 17 17 17 16 16 16 16 16 16 15 15 15 15 15 15 14 14 14 14 13 13 13
18 18 19 18 19 19 18 18 18 17 16 16 16 16 15 15 15 15 15 16 16 17 17 17 17 17 16 16 16 16 15 15 15 15 15 14 14 14 14 14 13 13 13 13
18 18 19 19 19 19 18 17 16 15 15 15 16 15 15 14 15 15 15 16 16 17 17 17 17 16 16 16 16 15 15 15 15 15 14 14 14 14 14 14 13 13 13 13
17 18 18 19 18 18 17 16 15 15 14 15 15 15 15 16 15 15 15 16 17 17 17 17 17 17 16 16 16 15 15 15 15 15 14 14 14 14 13 13 13 13 13 13
16 16 18 18 18 17 17 16 15 16 15 14 15 15 15 16 16 16 16 16 17 17 17 17 17 17 16 16 16 15 15 15 15 14 14 14 14 13 13 13 13 13 12 12
16 16 18 18 18 17 16 15 15 14 15 14 14 15 15 16 16 16 16 16 16 16 16 16 16 16 16 16 16 15 15 15 15 14 14 14 13 13 13 13 13 12 12 12
16 16 17 17 18 17 17 15 14 14 15 15 15 15 15 16 16 15 15 15 16 16 16 16 16 16 16 16 16 15 15 15 15 14 14 13 13 13 13 13 12 12 12 12
16 16 16 17 17 17 16 15 14 13 14 14 15 15 16 16 16 15 15 16 16 16 16 16 16 16 16 15 15 15 15 15 14 14 14 13 13 13 13 12 12 12 12 12
14 14 14 15 16 16 16 15 14 15 14 13 13 14 16 15 15 15 15 16 16 16 16 16 16 15 15 15 15 15 15 14 14 14 14 13 13 13 12 12 12 12 12 11
14 13 14 15 15 16 16 15 14 13 13 12 13 14 15 14 14 15 15 15 16 16 15 15 15 15 15 15 14 14 14 14 14 13 13 13 13 13 12 12 12 11 11 11
14 13 14 15 15 15 15 15 14 14 13 12 13 14 14 14 14 14 15 15 15 15 15 15 15 15 15 14 14 14 14 14 13 13 13 13 12 12 12 12 11 11 11 11
14 14 14 14 15 15 15 15 14 14 14 13 14 13 14 14 13 14 14 14 14 14 14 15 14 14 14 14 14 14 13 13 13 13 13 12 12 12 12 11 11 11 11 11
12 13 14 14 14 14 14 14 14 14 14 13 13 13 13 14 14 14 14 14 13 14 14 14 14 14 14 14 14 13 13 13 13 13 12 12 12 12 11 11 11 11 11 10
11 12 13 13 13 14 13 14 14 14 13 13 13 14 13 12 12 13 13 13 14 14 14 14 14 14 14 14 14 13 13 13 13 12 12 12 11 11 11 11 11 11 10 10
11 11 10 11 13 13 14 14 14 14 14 13 13 13 13 13 13 14 14 14 14 14 14 14 14 14 14 13 13 13 13 12 12 12 12 11 11 11 11 10 10 10 10 10
10 11 10 10 12 12 13 14 14 13 13 13 13 12 13 13 13 13 14 14 14 14 14 14 14 14 13 13 13 12 12 12 12 12 11 11 11 11 10 10 10 10 10 10
10 10 10 10 12 12 13 14 14 14 13 13 13 12 12 12 11 12 14 14 14 14 14 13 13 13 13 12 12 12 12 12 11 11 11 11 10 10 10 10 10 9 9 9
10 10 10 10 11 12 12 13 14 14 13 14 14 13 12 11 12 14 14 14 14 13 13 13 13 13 12 12 12 11 11 11 11 11 10 10 10 9 9 9 9 9 9 9
11 10 10 9 11 12 13 12 13 13 14 14 14 14 13 13 13 13 13 13 13 13 13 12 12 12 12 11 11 11 11 11 10 10 10 10 9 9 9 9 9 8 8 8
10 10 10 10 12 12 13 13 14 14 14 14 14 14 14 13 13 13 13 13 13 12 12 12 12 11 11 11 11 11 11 10 10 10 10 9 9 9 8 8 8 8 8 8
9 9 9 9 10 11 12 13 14 14 14 14 14 14 13 13 13 12 12 12 12 12 11 11 11 11 11 10 10 10 10 10 10 10 9 9 9 8 8 8 8 7 7 7
9 9 9 9 10 11 12 13 14 14 14 14 13 13 13 13 12 12 11 11 11 11 11 11 10 10 10 10 10 10 9 9 9 9 9 9 8 8 8 7 7 7 7 7
8 9 9 10 11 10 12 13 13 13 13 13 13 13 13 12 12 12 11 11 11 10 10 10 10 10 9 9 9 9 9 9 9 9 8 8 8 8 7 7 7 6 6 6
Wind_Speed
3 4 3 6 6 4 3 3 3 4 3 3 4 5 5 3 4 5 5 5 6 7 5 3 4 4 4 3 3 3 3 3 3 2 2 2 1 1 1 2 2 3 3 4
4 2 6 4 4 3 3 2 3 3 0 3 3 5 5 4 6 7 8 8 8 6 3 3 4 4 5 5 4 4 4 4 4 2 2 2 2 1 1 1 3 3 3 3
5 5 2 4 3 3 3 5 5 4 2 2 1 5 5 3 3 4 6 7 7 8 8 6 5 6 5 6 6 5 4 4 4 3 3 3 3 3 2 2 1 1 2 2
3 3 1 2 3 4 4 5 5 3 1 2 0 4 7 4 3 5 7 7 7 8 7 7 6 6 7 7 6 5 5 4 4 4 5 5 3 2 1 1 0 1 1 2
3 2 3 3 5 5 5 1 2 2 3 1 1 2 7 2 4 6 7 8 8 8 8 8 8 8 7 6 6 5 5 4 4 4 5 5 3 2 1 1 1 1 1 1
4 2 3 4 2 3 4 5 5 5 4 2 4 4 6 4 5 5 5 6 7 7 7 7 6 5 5 5 5 5 5 5 4 5 5 5 5 4 3 2 1 0 0 1
4 3 2 2 2 2 4 5 3 4 2 5 3 3 7 6 5 5 5 5 5 6 6 6 6 6 6 6 6 6 6 5 5 5 5 5 5 5 5 3 3 2 1 1
1 5 3 2 4 4 4 7 6 4 4 4 2 5 6 4 3 2 2 1 2 4 5 6 7 7 7 7 7 7 7 6 6 6 5 4 4 3 3 3 3 3 2 2
3 5 4 2 2 7 5 4 5 5 2 2 5 5 6 2 2 2 2 1 1 3 4 5 5 6 6 7 7 8 8 6 6 6 5 4 4 4 3 3 3 2 2 2
6 4 4 3 3 3 4 7 5 4 3 3 5 4 4 4 4 2 1 1 2 1 2 3 4 5 5 6 5 5 7 7 6 5 5 4 4 4 4 3 3 3 3 2
4 4 4 2 2 4 3 3 4 4 4 4 3 6 4 5 4 4 4 3 3 3 3 2 2 3 4 3 4 4 5 5 5 5 5 4 4 4 3 3 3 3 2 2
3 4 3 5 4 2 4 5 6 4 4 4 3 6 3 3 2 2 3 2 1 2 2 2 2 2 2 3 3 4 5 5 5 5 4 4 4 3 3 3 3 3 3 3
5 4 1 5 4 2 1 2 3 4 4 4 4 6 3 2 2 1 2 2 1 0 1 2 2 2 2 3 3 4 4 5 5 5 4 4 4 4 4 4 4 3 3 3
5 4 5 6 6 3 2 2 3 4 4 5 7 8 7 5 4 3 2 2 1 1 2 2 2 2 2 3 3 3 3 3 4 5 5 5 5 5 5 4 4 4 3 3
4 3 4 4 4 3 3 4 4 6 7 8 8 8 9 7 6 4 3 2 1 1 1 3 3 3 2 2 2 2 3 3 4 5 5 6 5 5 4 4 4 3 3 4
3 3 2 3 2 3 4 6 6 6 5 6 6 8 7 4 2 2 2 2 2 2 3 3 3 3 3 3 3 2 2 2 3 4 5 5 4 4 4 4 4 4 4 3
2 4 3 4 4 3 5 6 7 5 5 7 8 8 3 2 3 4 4 3 4 4 4 4 4 5 5 4 4 4 3 2 3 3 3 3 4 4 4 4 4 4 4 4
6 5 3 1 1 6 7 3 4 5 5 5 5 4 4 5 4 3 3 4 5 4 4 4 4 3 3 2 2 2 2 3 3 3 3 3 3 3 3 4 5 5 4 4
5 6 4 3 3 7 7 3 4 4 5 4 5 4 2 0 2 3 3 3 4 4 4 4 3 3 2 2 3 3 2 2 3 3 3 3 3 3 3 4 5 4 4 4
3 4 5 4 4 6 6 3 2 2 5 4 5 4 3 3 0 5 4 2 2 1 1 2 2 1 2 2 3 4 3 2 3 4 4 3 3 3 4 4 4 3 3 4
2 2 4 5 5 7 7 3 3 4 6 3 5 5 5 5 5 4 2 2 1 1 0 1 2 2 2 2 3 3 2 3 4 2 2 2 2 3 3 3 2 2 2 2
6 5 5 5 5 8 4 4 6 7 2 2 3 4 4 4 2 1 1 1 0 1 1 1 2 1 0 2 3 2 3 3 1 2 2 2 2 2 2 2 1 2 2 3
6 7 6 8 8 5 3 5 4 3 3 2 3 3 4 3 3 2 1 1 1 1 1 1 2 1 0 1 2 2 2 1 1 2 2 1 1 1 1 2 2 2 2 2
4 2 3 4 6 5 4 4 3 2 3 3 3 3 3 3 3 2 2 2 2 1 2 1 2 2 1 1 1 2 1 1 2 2 2 1 1 1 1 1 1 1 2 2
5 3 3 5 6 4 4 4 3 2 1 1 1 2 4 4 3 3 3 3 2 1 1 2 3 3 2 1 1 0 1 2 3 2 2 1 1 1 1 1 0 1 2 3
5 6 6 7 6 5 6 5 3 2 2 3 2 2 2 4 4 3 3 3 3 2 2 2 2 2 2 1 1 1 1 3 4 3 2 1 1 1 1 1 1 3 2 1
Wind_Direction
59 85 188 210 196 185 165 175 234 252 226 170 214 249 265 216 203 214 214 211 211 224 228 196 187 175 158 150 147 147 143 137 124 108 113 116 109 80 63 61 75 94 107 119
50 257 233 197 175 165 168 189 250 287 232 179 240 268 266 218 211 213 212 215 214 217 216 196 181 173 171 169 168 159 159 162 164 154 138 130 128 116 104 57 64 85 106 122
190 240 202 153 166 173 205 202 222 235 343 34 341 308 283 261 234 229 221 217 215 207 206 202 190 190 179 180 178 174 176 174 169 146 114 91 69 53 45 39 41 37 91 114
230 255 162 164 208 175 241 225 205 200 148 278 139 290 286 267 273 245 233 223 219 213 202 198 193 193 194 196 185 175 174 168 158 148 145 143 142 152 190 188 225 12 71 88
243 219 183 211 226 186 216 175 150 163 162 286 281 216 284 300 272 259 243 228 222 210 197 196 198 199 197 188 181 179 165 160 153 157 161 157 148 152 128 106 86 38 22 46
247 246 204 212 212 160 136 72 55 52 81 272 232 192 277 248 238 262 255 235 222 207 196 196 197 186 182 172 174 173 164 165 163 162 162 164 159 154 146 150 153 53 352 1
321 306 279 158 96 51 97 90 23 353 4 253 238 201 249 252 236 234 246 245 221 198 192 190 185 184 183 178 177 176 172 174 172 171 176 177 172 170 176 181 185 182 190 274
253 290 263 196 174 180 172 147 165 210 229 274 273 231 254 263 264 257 242 224 180 183 191 196 199 193 191 188 182 179 182 183 178 180 186 182 178 176 186 187 191 197 202 222
185 258 285 246 197 144 144 173 165 141 187 261 272 280 300 297 338 11 28 64 160 193 201 205 202 191 189 190 191 189 186 186 186 188 183 177 182 182 188 190 194 205 210 214
164 240 290 298 81 50 142 144 113 136 182 248 281 276 254 264 261 280 293 270 249 221 218 216 201 195 194 195 195 188 187 191 190 186 187 189 195 197 189 178 190 204 208 206
147 185 301 3 175 188 108 119 126 143 170 172 254 272 228 224 226 230 247 247 228 210 211 220 211 193 185 179 176 183 193 189 186 186 188 187 192 189 178 185 200 206 206 193
147 136 248 263 258 210 184 174 154 167 219 186 195 268 289 244 249 230 251 264 239 206 184 183 169 146 159 174 180 187 194 194 197 189 181 186 183 181 191 203 212 208 203 205
136 118 37 334 342 14 157 173 167 144 140 168 188 260 324 357 339 308 259 275 267 175 144 131 132 159 185 187 188 192 198 199 189 174 177 185 189 193 205 213 213 208 205 207
125 131 173 206 230 224 248 233 186 156 176 205 219 248 289 298 298 298 283 250 204 185 164 159 175 192 200 199 195 195 204 195 181 173 179 192 203 210 214 213 210 206 202 199
114 169 214 237 243 224 236 246 210 201 201 207 230 235 257 259 255 253 241 208 170 205 190 190 196 198 193 194 198 194 197 192 183 178 188 204 208 209 212 211 210 207 202 205
108 167 190 275 270 246 267 262 236 230 224 221 241 261 263 257 247 253 243 199 199 230 243 225 205 198 200 203 203 193 191 194 178 184 199 204 200 203 208 212 210 209 214 217
143 141 146 263 302 336 274 243 219 214 214 198 223 243 244 252 241 242 239 225 225 234 233 224 216 212 212 211 199 195 199 181 172 189 201 200 199 207 215 213 209 210 216 216
153 140 148 202 58 247 247 232 199 208 240 218 223 237 227 232 240 253 229 216 233 239 238 235 230 229 221 196 177 167 155 163 174 183 196 201 198 208 212 208 216 221 216 212
166 150 145 155 219 271 289 256 183 189 264 225 213 232 246 273 15 316 260 219 230 240 239 230 221 214 193 175 164 147 150 161 168 186 202 210 201 206 209 222 230 229 222 221
96 126 142 161 198 241 250 241 188 133 274 240 192 204 197 117 128 273 270 246 264 272 235 205 184 161 166 181 155 148 164 175 203 213 212 205 195 202 216 226 233 233 220 222
113 124 168 190 222 258 252 240 132 178 242 230 190 193 181 196 219 246 266 280 277 301 338 154 144 157 187 170 152 159 179 219 231 221 205 202 202 210 216 223 227 208 193 190
181 177 186 170 209 251 240 146 182 216 243 199 195 195 197 222 247 231 223 237 46 21 34 121 126 134 167 155 154 167 214 238 215 167 185 206 213 220 206 199 222 200 173 168
200 195 191 195 215 241 221 216 241 209 213 216 201 221 196 211 239 239 226 197 193 169 157 144 137 128 52 165 159 185 235 216 161 147 170 188 184 197 172 171 180 181 174 174
251 190 182 244 260 258 260 261 271 244 232 238 208 194 184 211 223 225 222 204 197 189 176 150 130 142 199 236 188 198 215 185 147 152 166 160 143 117 97 121 150 165 185 182
230 181 203 253 270 289 275 237 240 265 268 268 243 211 194 191 215 209 214 215 206 205 198 168 167 179 206 204 157 180 174 146 137 142 144 137 141 149 129 105 145 202 218 197
210 193 198 238 237 222 256 255 221 214 240 238 239 258 235 196 199 198 206 210 198 192 184 166 167 170 192 181 179 216 175 154 148 146 149 154 161 158 148 134 49 23 31 32
Height
1498 1504 1508 1507 1506 1507 1510 1514 1516 1513 1508 1511 1513 1513 1510 1509 1510 1510 1510 1511 1511 1512 1514 1516 1517 1519 1520 1521 1523 1524 1525 1526 1527 1528 1528 1529 1529 1529 1530 1530 1530 1531 1531 1531
1503 1506 1501 1501 1503 1506 1509 1514 1514 1511 1507 1510 1513 1512 1508 1507 1507 1506 1507 1508 1509 1510 1512 1513 1515 1517 1518 1519 1521 1522 1524 1525 1526 1527 1527 1528 1529 1529 1529 1529 1530 1530 1530 1531
1504 1502 1498 1500 1503 1506 1509 1512 1512 1512 1509 1510 1512 1514 1509 1505 1504 1504 1504 1505 1506 1507 1508 1510 1512 1514 1515 1517 1519 1520 1522 1523 1525 1526 1526 1527 1528 1528 1528 1528 1528 1529 1529 1530
1501 1498 1498 1500 1503 1504 1510 1503 1505 1508 1515 1520 1516 1526 1511 1506 1504 1502 1501 1501 1502 1503 1505 1507 1509 1511 1513 1515 1517 1519 1520 1522 1523 1524 1525 1525 1526 1526 1527 1527 1528 1528 1528 1529
1500 1497 1498 1501 1500 1500 1503 1500 1504 1507 1514 1520 1518 1524 1516 1507 1504 1500 1498 1497 1498 1500 1502 1504 1506 1508 1511 1513 1515 1517 1518 1520 1521 1522 1523 1524 1525 1525 1526 1527 1527 1527 1527 1527
1497 1495 1495 1496 1495 1497 1499 1504 1508 1514 1520 1528 1519 1523 1519 1508 1501 1497 1494 1494 1494 1496 1499 1501 1504 1506 1509 1511 1513 1514 1516 1518 1519 1520 1522 1522 1523 1524 1524 1525 1525 1526 1526 1526
1501 1496 1494 1493 1497 1499 1501 1514 1527 1528 1533 1530 1517 1519 1514 1498 1494 1493 1492 1491 1492 1494 1496 1498 1501 1503 1505 1508 1510 1512 1514 1515 1517 1518 1520 1521 1522 1522 1523 1523 1524 1524 1524 1524
1510 1508 1496 1493 1496 1501 1503 1510 1527 1533 1535 1528 1517 1519 1506 1493 1491 1490 1490 1490 1491 1492 1494 1496 1498 1500 1503 1505 1507 1509 1511 1513 1515 1516 1518 1519 1520 1521 1521 1522 1522 1522 1522 1523
1509 1508 1493 1491 1492 1495 1504 1509 1509 1521 1524 1528 1522 1513 1501 1492 1491 1490 1489 1490 1490 1491 1492 1494 1496 1498 1500 1503 1505 1507 1509 1511 1513 1514 1516 1517 1518 1519 1519 1520 1520 1520 1521 1521
1500 1506 1496 1492 1492 1494 1497 1503 1514 1521 1528 1531 1521 1515 1508 1496 1492 1491 1490 1490 1490 1491 1491 1492 1494 1496 1498 1501 1503 1505 1507 1508 1510 1512 1513 1515 1516 1516 1517 1518 1518 1518 1518 1519
1496 1504 1501 1497 1497 1499 1502 1505 1510 1518 1520 1527 1527 1516 1494 1492 1490 1490 1489 1489 1490 1490 1490 1491 1493 1494 1497 1499 1501 1502 1504 1506 1508 1509 1511 1512 1513 1514 1514 1515 1515 1516 1516 1516
1496 1504 1508 1501 1494 1493 1495 1499 1507 1515 1518 1520 1523 1515 1488 1488 1488 1488 1488 1489 1489 1489 1489 1490 1491 1493 1494 1496 1498 1500 1501 1503 1505 1506 1508 1509 1510 1511 1512 1512 1513 1513 1513 1513
1495 1504 1512 1508 1504 1498 1497 1497 1500 1506 1514 1521 1522 1511 1489 1488 1487 1487 1488 1488 1487 1488 1488 1489 1490 1491 1492 1494 1495 1497 1498 1500 1502 1503 1505 1506 1507 1508 1508 1509 1509 1510 1510 1511
1490 1501 1507 1510 1506 1500 1498 1497 1499 1503 1512 1516 1512 1502 1493 1489 1488 1487 1487 1486 1486 1487 1487 1487 1488 1489 1490 1492 1493 1494 1496 1497 1499 1500 1501 1502 1503 1504 1505 1505 1506 1507 1507 1508
1490 1499 1499 1497 1495 1495 1495 1495 1496 1499 1500 1504 1500 1498 1491 1488 1487 1486 1485 1485 1485 1485 1485 1486 1486 1487 1488 1489 1490 1491 1492 1494 1495 1497 1498 1499 1500 1501 1501 1502 1502 1503 1504 1504
1491 1496 1497 1497 1494 1494 1495 1492 1492 1494 1493 1495 1494 1492 1485 1484 1484 1483 1482 1482 1482 1483 1483 1484 1484 1485 1485 1487 1488 1489 1490 1491 1492 1493 1494 1495 1496 1497 1497 1498 1499 1499 1500 1500
1493 1496 1501 1503 1497 1495 1498 1490 1488 1489 1487 1488 1491 1486 1482 1483 1482 1481 1480 1480 1480 1481 1481 1482 1482 1482 1483 1484 1485 1486 1487 1488 1489 1490 1490 1491 1492 1493 1493 1494 1494 1495 1495 1496
1492 1497 1503 1505 1501 1504 1491 1481 1481 1483 1482 1481 1480 1480 1480 1479 1479 1479 1479 1479 1479 1479 1479 1480 1480 1480 1481 1482 1483 1484 1485 1485 1485 1486 1487 1487 1488 1489 1489 1490 1490 1490 1491 1492
1486 1493 1503 1507 1506 1499 1487 1480 1479 1482 1481 1477 1477 1477 1477 1478 1478 1477 1477 1477 1477 1477 1478 1478 1478 1478 1479 1479 1480 1481 1482 1482 1482 1483 1483 1484 1484 1485 1485 1485 1486 1486 1487 1487
1487 1489 1498 1504 1502 1500 1485 1476 1475 1478 1481 1474 1473 1475 1476 1477 1481 1477 1475 1475 1475 1475 1475 1476 1476 1476 1476 1477 1478 1478 1479 1479 1479 1480 1480 1481 1481 1481 1481 1481 1482 1482 1482 1483
1491 1494 1497 1501 1499 1490 1477 1473 1475 1485 1480 1471 1470 1471 1473 1474 1474 1473 1472 1473 1473 1473 1473 1474 1474 1474 1474 1474 1475 1475 1476 1476 1477 1477 1478 1478 1478 1478 1478 1478 1478 1478 1478 1479
1487 1491 1495 1497 1497 1490 1471 1472 1475 1473 1468 1468 1468 1469 1470 1470 1470 1470 1470 1470 1470 1470 1471 1471 1471 1471 1472 1472 1472 1472 1473 1474 1475 1475 1475 1475 1475 1475 1475 1475 1475 1475 1475 1475
1480 1479 1480 1481 1479 1470 1468 1468 1467 1467 1467 1467 1467 1468 1468 1468 1468 1468 1468 1467 1468 1468 1469 1469 1469 1469 1470 1470 1470 1470 1471 1471 1471 1471 1472 1472 1472 1472 1472 1472 1472 1472 1472 1472
1475 1473 1475 1475 1469 1467 1466 1465 1465 1465 1465 1465 1465 1466 1466 1466 1466 1466 1466 1465 1465 1466 1466 1466 1467 1467 1467 1468 1468 1468 1469 1469 1469 1469 1469 1469 1469 1469 1469 1469 1470 1470 1470 1470
1471 1471 1472 1471 1467 1464 1463 1462 1463 1463 1463 1463 1463 1464 1464 1464 1464 1464 1464 1463 1463 1463 1464 1464 1465 1465 1465 1465 1465 1466 1466 1466 1466 1466 1466 1467 1467 1467 1467 1467 1467 1467 1467 1468
1466 1467 1469 1466 1462 1462 1460 1460 1461 1461 1461 1461 1461 1461 1461 1461 1461 1461 1461 1461 1461 1461 1461 1462 1462 1462 1463 1463 1463 1463 1463 1464 1464 1464 1464 1464 1464 1465 1465 1465 1465 1465 1465 1466